Weather Roundup
Issued by NWS

Home | Current Version | Previous Version | Graphics & Text | Print | Product List | Glossary Off
Versions: 1 2 3 4 5 6 7 8 9 10 11 12 13 14 15 16 17 18 19 20 21 22 23 24 25 26 27 28 29 30 31 32 33 34 35 36 37 38 39 40 41 42 43 44 45 46 47 48 49 50

000
NZUS93 KARX 230759
HRRWXR

CURRENT HOURLY OBSERVATIONS ACROSS
MUCH OF THE UPPER MISSISSIPPI VALLEY
NATIONAL WEATHER SERVICE LA CROSSE WI
300 AM CDT FRI JUN 23 2017


...SOUTHEAST MINNESOTA...


CITY           SKY/WX    TMP DP  RH WIND       PRES   REMARKS
ROCHESTER      CLEAR     60  59  96 W7        29.77R FOG
ROCHESTER/MAYO FAIR      62  62 100 W5        29.77R
WINONA         PTCLDY    61  61 100 CALM      29.74R
AUSTIN         CLEAR     61  57  88 W5        29.77R FOG
ALBERT LEA     CLEAR     61  57  88 CALM      29.79R
DODGE CENTER   CLEAR     61  55  82 W7        29.77R
PRESTON        CLEAR     61  60  94 CALM      29.76S FOG
OWATONNA       CLEAR     57  55  94 W3        29.77S
FARIBAULT      CLEAR     57  55  94 SW5       29.77S
$$

...ELSEWHERE IN MINNESOTA...


CITY           SKY/WX    TMP DP  RH WIND       PRES   REMARKS
MINNEAPOLIS    CLEAR     60  55  83 CALM      29.73F
INTNL FALLS    MOCLDY    55  45  68 W7        29.59F
DULUTH         MOCLDY    56  51  84 W12       29.64F
RED WING       FOG       61  57  88 CALM      29.73S VSB 1/2
REDWOOD FALLS  CLEAR     60  54  80 W9        29.77S
MANKATO        CLEAR     57  54  89 SW5       29.78F
WORTHINGTON    CLEAR     55  51  86 W7        29.84S
FAIRMONT       CLEAR     57  53  86 CALM      29.80F
$$

...SOUTHWEST WISCONSIN...


CITY           SKY/WX    TMP DP  RH WIND       PRES   REMARKS
LA CROSSE      CLOUDY    66  65  96 NW6       29.72F
PRAIRIE DU CHI CLOUDY    65  63  93 N3        29.71R
BOSCOBEL       CLOUDY    63  59  87 CALM      29.70F
LONE ROCK      HVY RAIN  64  63  94 SW3G17    29.71R VSB 3/4
PLATTEVILLE    CLOUDY    66  66 100 N6        29.71R
FORT MC COY    LGT RAIN  64  63  99 CALM      29.72F
CAMP DOUGLAS   MOCLDY    65  65 100 NW3       29.70S
MAUSTON-NEW LI DRIZZLE   65  65  97 NW5       29.71R
VIROQUA        PTSUNNY   64  64 100 N5        29.73S
WIS DELLS      LGT RAIN  64  63  95 W5        29.70R
$$

...ELSEWHERE IN WISCONSIN...


CITY           SKY/WX    TMP DP  RH WIND       PRES   REMARKS
MILWAUKEE      TSTM      65  65 100 N14       29.64F FOG
MADISON        RAIN      65  64  97 NW5       29.69R FOG
GREEN BAY      MOCLDY    66  66 100 W5        29.65F
EAU CLAIRE     NOT AVBL
BLACK RVR FLS  FOG       62  62 100 W3        29.71F VSB<1/4
MEDFORD        CLOUDY    59  57  94 W3        29.71F
WAUSAU         CLOUDY    61  60  97 CALM      29.68F
WIS RAPIDS     CLOUDY    65  63  93 W3        29.71F
MARSHFIELD     CLOUDY    62  59  90 W7        29.70F
RICE LAKE      CLEAR     58  56  91 W3        29.72S
$$

...NORTHEAST IOWA...


CITY           SKY/WX    TMP DP  RH WIND       PRES   REMARKS
WATERLOO       CLOUDY    67  64  90 N8        29.74R
DUBUQUE        CLOUDY    66  65  96 N14       29.70F
DECORAH        CLOUDY    64  64 100 NW6       29.73S
MASON CITY     CLEAR     61  59  93 NW9       29.79S
CHARLES CITY   PTCLDY    64  64 100 N6        29.76R FOG
OELWEIN        CLOUDY    68  68 100 N5        29.75R
$$

...ELSEWHERE IN IOWA...


CITY           SKY/WX    TMP DP  RH WIND       PRES   REMARKS
DES MOINES     MOCLDY    69  66  90 N10       29.74S
IOWA CITY      CLOUDY    73  69  87 NW16G22   29.67F
FORT DODGE     PTCLDY    63  55  77 CALM      29.81S
MARSHALLTOWN   CLOUDY    69  66  90 N14       29.75R
CEDAR RAPIDS   CLOUDY    69  69 100 N16       29.68S
$$

...NORTHERN ILLINOIS...


CITY           SKY/WX    TMP DP  RH WIND       PRES   REMARKS
CHICAGO-OHARE  CLOUDY    76  70  82 SW13G21   29.64F
CHICAGO-MIDWAY CLOUDY    76  72  87 SW10      29.65S
MOLINE         CLOUDY    77  71  82 S7        29.64R
ROCKFORD       CLOUDY    77  72  84 SW14      29.64F
PEORIA         CLOUDY    75  74  96 SW12      29.67F
$$

NOTE: "FAIR" INDICATES FEW OR NO CLOUDS BELOW 12,000 FEET WITH NO
SIGNIFICANT WEATHER AND/OR OBSTRUCTIONS TO VISIBILITY. WIND
SPEEDS ARE IN MILES-PER-HOUR.




USA.gov is the U.S. government's official web portal to all federal, state and local government web resources and services.